Content
SEND FEEDBACK

Daily
Averages
Monthly
Summary
United States of America

ST. LOUIS, MISSOURI


Home > North America > United States > Missouri
Elevation: 535 feet     Latitude: 38 45N     Longitude: 090 22W

WEATHER
 
SELECT A DAY
Number of Records: 196,446;   Date Range: 1/1/95 - 8/12/14
 
SHARE

PRINT THIS DATA

[ ← Previous Day ]
WEATHER ALMANAC - JULY 28, 2013
[ Next Day → ]
[ °C ]   °F
Weather ElementAverageHighLow
Temperature61.5 °F80.1 °F (2:54 pm)50 °F (5:54 am)
Dewpoint51.9 °F59 °F (7:54 pm)48 °F (12:54 pm)
Humidity76.5 %100 % (5:19 am)34 % (2:54 pm)
Barometer30.02 in30.05 in (11:54 pm)29.99 in (2:54 pm)
Wind Speed2.8 mph12.7 mph (12:54 pm)
Weather ElementAverage
Visibility6.7 mi
Wind DirectionESE (96.7 °)

Weather ElementTotal
Precipitation---
Growing Degree Days15.1 (Base 50)
Averaged from 36 records on July 28, 2013
WEATHER CONDITIONS BREAKOUT
WIND DIRECTION BREAKOUT
WEATHER BY HOUR - JULY 28, 2013
[ °C ]   °F
Local TimeTemperatureDewpointHumidityBarometerVisibilityWind DirectionWind SpeedGust SpeedPrecipitationEventsConditions
1:54 AM53.1 °F51.1 °F93 %30.01 in10.0 miWSW (240°)3.5 mphClear
2:54 AM53.1 °F51.1 °F93 %30.01 in10.0 miCalmClear
3:54 AM53.1 °F51.1 °F93 %30.02 in2.0 miCalmClear
4:07 AM53.6 °F51.8 °F94 %30.02 in8.0 miCalmClear
4:54 AM52.0 °F50.0 °F93 %30.00 in7.0 miCalmClear
5:02 AM51.8 °F50.0 °F94 %30.01 in1.8 miCalmClear
5:11 AM51.8 °F50.0 °F94 %30.02 in3.0 miCalmClear
5:19 AM51.8 °F51.8 °F100 %30.02 in1.8 miCalmClear
5:29 AM51.8 °F50.0 °F94 %30.02 in4.0 miCalmClear
5:54 AM50.0 °F48.9 °F96 %30.02 in10.0 miCalmClear
6:29 AM50.0 °F48.2 °F94 %30.04 in4.0 miWSW (250°)4.6 mphScattered Clouds
6:31 AM51.8 °F48.2 °F88 %30.04 in1.8 miWSW (240°)4.6 mphScattered Clouds
6:38 AM51.8 °F50.0 °F94 %30.04 in0.2 miWSW (250°)3.5 mphFogFog
6:46 AM51.8 °F51.8 °F100 %30.04 in0.2 miWest (260°)3.5 mphFogFog
6:54 AM53.1 °F52.0 °F96 %30.03 in0.2 miCalmFogFog
7:09 AM53.6 °F53.6 °F100 %30.04 in0.5 miCalmFogFog
7:21 AM53.6 °F53.6 °F100 %30.04 in1.2 miCalmOvercast
7:27 AM53.6 °F53.6 °F100 %30.04 in2.0 miCalmMostly Cloudy
7:29 AM53.6 °F53.6 °F100 %30.04 in3.0 miCalmPartly Cloudy
7:54 AM57.9 °F55.0 °F90 %30.04 in10.0 miCalmClear
8:54 AM66.0 °F55.9 °F70 %30.04 in10.0 miCalmPartly Cloudy
9:54 AM71.1 °F53.1 °F53 %30.03 in10.0 miSW (230°)3.5 mphScattered Clouds
10:54 AM73.9 °F50.0 °F43 %30.03 in10.0 miWSW (250°)6.9 mphClear
11:54 AM75.0 °F48.9 °F40 %30.02 in10.0 miVariable5.8 mphScattered Clouds
12:54 PM78.1 °F48.0 °F35 %30.01 in10.0 miWNW (290°)12.7 mphScattered Clouds
1:54 PM79.0 °F48.9 °F35 %30.00 in10.0 miWSW (240°)9.2 mphScattered Clouds
2:54 PM80.1 °F48.9 °F34 %29.99 in10.0 miWSW (250°)12.7 mphScattered Clouds
3:54 PM80.1 °F48.9 °F34 %29.99 in10.0 miWest (260°)11.5 mphScattered Clouds
4:54 PM80.1 °F48.9 °F34 %29.99 in10.0 miWSW (250°)8.1 mphMostly Cloudy
5:54 PM79.0 °F54.0 °F42 %29.99 in10.0 miWSW (240°)6.9 mphMostly Cloudy
6:54 PM75.0 °F54.0 °F48 %30.00 in10.0 miSW (230°)4.6 mphScattered Clouds
7:54 PM71.1 °F59.0 °F66 %30.01 in10.0 miCalmScattered Clouds
8:54 PM64.9 °F55.9 °F73 %30.02 in10.0 miCalmClear
9:54 PM64.9 °F57.0 °F75 %30.04 in10.0 miCalmClear
10:54 PM62.1 °F57.0 °F84 %30.04 in10.0 miCalmClear
11:54 PM60.1 °F55.0 °F83 %30.05 in10.0 miCalmClear
Hourly data recorded from KSUS, located miles away from St. Louis, Missouri







STORIES FROM OUR PARTNERS